Location: Lafig�re
(44.4503°N, 4.0357°E)
Time: 15:33:27
(UTC+00:00)

Cosmos 1844 - Pass Details

Date: 24 September 2020
Orbit: 824 x 866 km, 70.9° (Epoch: 25 October)

Event Time Altitude Azimuth Distance (km) Brightness Sun altitude
Rises 18:01:34 0° 178° (S) 3,408 6.8 -5.2°
Reaches altitude 10° 18:04:12 10° 170° (S) 2,470 6.0 -5.7°
Maximum altitude 18:09:18 35° 106° (ESE) 1,329 4.3 -6.6°
Drops below altitude 10° 18:14:22 10° 42° (NE) 2,459 5.8 -7.5°
Sets 18:16:58 0° 34° (NNE) 3,392 6.6 -8.0°
